DW8675 Weather Reports


time (UTC)temp
C
wind
direction
speed
KPH
gust
KPH
rain 1hr
cm
rain 24hr
cm
rain mn
cm
humidity
%
barometer
mb
20260504081533 7 251 3.2 8.0 0.00 0.00 0.00 73 1005.4
20260504044514 5 252 0.0 6.4 0.00 0.00 0.00 53 1005.9
20260504043055 5 253 0.0 3.2 0.00 0.00 0.00 48 1005.8
20260504041531 5 253 0.0 6.4 0.00 0.00 0.00 50 1005.9
20260504040019 5 253 1.6 6.4 0.00 0.00 0.00 51 1005.9
20260504034510 5 245 3.2 6.4 0.00 0.00 0.00 48 1005.8
20260504033102 4 247 3.2 6.4 0.00 0.00 0.00 53 1005.7
20260504031543 3 266 0.0 3.2 0.00 0.00 0.00 57 1005.8
20260504030015 4 266 0.0 3.2 0.00 0.00 0.00 54 1005.9
20260504024539 5 266 1.6 3.2 0.00 0.00 0.00 53 1005.8
20260504023023 5 266 0.0 4.8 0.00 0.00 0.00 51 1005.8
20260504021555 5 267 0.0 6.4 0.00 0.00 0.00 51 1005.9
20260504020043 5 266 0.0 4.8 0.00 0.00 0.00 50 1005.9
20260504014501 5 264 1.6 4.8 0.00 0.00 0.00 50 1005.8
20260504013105 5 262 0.0 4.8 0.00 0.00 0.00 49 1005.7
20260504011546 5 262 0.0 3.2 0.00 0.00 0.00 49 1005.5
20260504010024 6 262 1.6 3.2 0.00 0.00 0.00 48 1005.3
20260504004517 6 262 0.0 3.2 0.00 0.00 0.00 47 1005.1
20260504003048 6 262 0.0 3.2 0.00 0.00 0.00 47 1004.9
20260504001513 7 262 0.0 3.2 0.00 0.00 0.00 45 1004.7
20260504000058 7 262 0.0 4.8 0.00 0.00 0.00 44 1004.6
20260503234529 8 283 1.6 8.0 0.00 0.00 0.00 43 1004.5
20260503233101 8 287 6.4 11.3 0.00 0.00 0.00 40 1004.4
20260503231539 9 272 3.2 12.9 0.00 0.00 0.00 41 1004.3
20260503230026 9 282 4.8 17.7 0.00 0.00 0.00 40 1004.3
20260503224605 9 308 8.0 20.9 0.00 0.00 0.00 41 1004.4
20260503223035 8 217 11.3 24.1 0.00 0.00 0.00 40 1004.3
20260503221518 8 307 4.8 20.9 0.00 0.00 0.00 41 1004.2
20260503220005 8 293 9.7 19.3 0.00 0.00 0.00 43 1004.2
20260503214600 8 289 4.8 19.3 0.00 0.00 0.00 44 1004.2
20260503213010 8 222 9.7 24.1 0.00 0.00 0.00 42 1004.1
20260503211539 8 322 14.5 38.6 0.00 0.00 0.00 42 1004.4
20260503210021 8 266 4.8 20.9 0.00 0.00 0.00 42 1004.1
20260503204558 9 290 4.8 20.9 0.00 0.00 0.00 43 1004.0
20260503203045 8 260 6.4 17.7 0.00 0.00 0.00 43 1004.1
20260503201502 8 354 11.3 24.1 0.00 0.00 0.00 41 1004.0
20260503200043 8 295 6.4 27.4 0.00 0.00 0.00 44 1004.0
20260503194534 8 256 6.4 22.5 0.00 0.00 0.00 42 1004.1
20260503193003 8 254 11.3 37.0 0.00 0.00 0.00 42 1004.2
20260503191553 7 284 6.4 25.7 0.00 0.00 0.00 44 1004.3
20260503190038 7 256 9.7 32.2 0.00 0.00 0.00 44 1004.4
20260503184525 9 252 6.4 24.1 0.00 0.00 0.00 39 1004.2
20260503183008 7 208 11.3 35.4 0.00 0.00 0.00 42 1004.1
20260503181546 7 174 14.5 37.0 0.00 0.00 0.00 43 1004.1
20260503180019 8 252 14.5 37.0 0.00 0.00 0.00 42 1003.9
20260503174600 8 295 14.5 35.4 0.00 0.00 0.00 36 1003.7
20260503173026 9 331 9.7 20.9 0.00 0.00 0.00 35 1003.6
20260503171601 8 318 8.0 25.7 0.00 0.00 0.00 37 1003.8